Wind_Speed
3 3 2 2 2 3 0 0 1 2 2 6 3 2 5 2 1 1 2 4 2 6 11 13 13 12 11 11 9 9 7 5 4 5 6 5 5 4 4 3 3 3 2 3 3 4 4 5 7
3 2 2 2 3 2 1 2 1 1 3 2 2 2 2 2 2 1 3 1 1 6 10 12 12 11 10 10 9 10 8 6 6 6 7 6 5 4 3 3 2 1 1 1 1 2 2 4 6
3 2 0 3 3 3 3 2 2 2 4 2 0 3 2 0 2 2 2 2 1 3 7 10 11 10 10 9 8 9 8 7 7 7 7 6 5 5 3 3 3 2 1 0 0 0 1 3 5
1 1 5 3 2 1 1 1 3 5 1 6 2 1 1 1 0 2 2 2 1 2 5 8 11 10 10 9 8 8 9 8 8 8 7 6 6 6 5 5 5 5 3 2 3 2 1 1 3
2 2 3 2 1 2 2 2 3 2 1 5 3 3 2 1 2 3 3 2 3 2 2 5 10 10 10 10 9 9 10 10 10 9 9 9 10 8 7 6 6 5 4 3 4 4 3 1 1
2 3 3 1 2 1 2 5 3 3 4 3 3 3 3 3 2 3 2 2 2 3 2 1 5 8 9 9 10 10 10 11 11 11 10 12 12 11 9 8 7 7 7 5 6 7 5 3 2
4 2 1 1 1 2 2 5 2 2 4 3 2 2 5 3 2 2 1 0 1 1 2 1 3 6 8 9 10 10 10 11 12 13 13 14 14 13 12 12 10 9 9 8 7 8 8 7 5
3 3 2 1 0 1 5 3 2 5 1 6 7 3 3 7 5 6 5 4 4 4 4 4 4 6 7 7 9 10 11 12 13 15 15 16 16 16 15 15 15 12 11 10 9 9 9 9 8
3 3 0 1 2 2 6 5 4 5 4 8 6 6 7 9 6 6 8 8 8 8 9 9 10 10 11 11 11 11 11 13 14 16 16 17 19 17 17 18 17 16 15 13 11 11 12 12 12
4 2 2 2 1 2 6 4 7 4 9 6 12 10 5 8 8 8 9 9 10 12 14 16 18 19 18 17 15 15 14 14 15 16 17 20 20 20 19 19 19 18 18 17 16 13 13 14 14
1 2 2 1 3 6 4 6 2 1 2 5 11 17 13 14 12 10 10 11 12 13 17 20 23 23 23 22 19 21 21 20 19 18 17 19 21 22 23 22 20 20 20 21 19 17 16 16 16
2 2 1 2 4 7 4 5 3 2 5 12 10 10 12 12 9 12 14 13 11 12 13 14 17 21 24 24 24 23 24 24 26 23 20 19 20 23 24 24 22 22 22 23 22 20 18 17 17
3 4 7 9 12 8 6 5 2 4 15 13 13 13 13 9 6 6 6 7 8 9 8 9 10 11 15 20 24 24 23 25 27 28 26 22 21 20 22 23 23 25 25 25 25 23 20 19 18
4 7 10 6 8 5 2 2 3 2 18 17 20 18 15 11 5 1 2 4 6 6 9 10 11 12 13 14 17 20 24 26 27 30 30 27 27 24 23 23 23 24 26 25 25 24 22 21 19
3 4 5 6 9 4 3 1 2 7 18 21 18 13 12 12 8 8 6 5 7 8 9 11 13 14 15 16 16 17 18 20 24 28 30 31 29 28 28 26 27 25 24 24 24 24 25 24 22
3 3 4 3 10 8 6 4 5 22 19 20 14 9 9 10 10 9 7 7 8 9 11 12 14 15 16 17 18 19 20 21 22 23 26 29 31 31 31 31 30 28 26 23 23 24 25 25 24
8 4 4 9 6 8 10 9 11 20 19 7 8 10 11 11 11 11 12 12 13 14 14 15 16 17 17 18 19 20 21 21 22 25 26 27 30 32 32 32 32 30 26 27 26 25 24 24 24
6 4 3 6 5 10 10 10 8 14 6 11 13 12 12 12 14 13 11 12 13 14 15 15 16 17 18 19 20 19 19 19 20 20 21 23 28 29 31 36 34 31 30 28 29 27 26 25 23
3 3 6 4 4 12 5 15 9 7 12 11 10 11 12 12 11 12 13 15 16 17 19 21 21 20 19 19 20 21 24 22 18 16 16 18 21 25 28 30 32 34 32 31 29 29 28 26 24
3 4 5 10 6 10 12 17 4 9 5 7 8 9 10 10 11 12 14 15 16 19 21 24 26 26 25 24 21 21 23 25 26 22 18 19 21 19 21 25 30 31 31 35 34 33 31 30 28
2 2 4 7 6 7 8 5 3 4 4 5 9 7 9 12 13 13 15 17 18 21 23 27 28 28 28 27 27 27 26 26 27 27 25 21 20 22 18 19 23 28 30 31 33 35 34 30 30
2 2 5 9 12 8 7 7 4 1 2 3 6 7 8 9 11 15 18 20 22 25 25 25 24 23 24 24 24 25 27 27 27 29 29 29 23 23 18 19 21 24 28 31 33 34 30 31 33
4 7 6 15 13 4 5 3 2 2 2 3 4 6 6 9 13 16 17 19 23 26 27 25 23 22 21 21 22 23 24 24 27 29 30 29 22 22 19 20 22 22 27 32 33 33 31 33 33
7 6 8 3 1 2 6 3 4 2 2 6 4 7 11 14 15 15 15 19 22 25 25 24 23 23 23 23 22 23 22 24 27 25 30 31 25 24 25 24 25 25 25 29 29 32 31 31 32
9 7 5 4 2 3 4 6 8 3 3 4 8 13 17 16 19 17 17 18 20 22 24 24 24 22 23 25 25 26 28 26 28 28 29 30 28 25 24 28 29 25 22 25 24 27 30 29 31
3 1 1 6 6 11 12 8 1 2 5 8 13 18 22 28 25 18 20 19 19 19 22 22 19 20 25 28 30 32 32 26 27 28 30 29 28 29 27 31 29 23 22 27 26 30 30 28 28
2 1 1 5 6 4 4 6 4 1 5 13 21 20 29 33 27 18 21 21 20 21 22 22 21 22 25 29 31 35 35 31 28 27 27 26 26 26 27 30 28 22 20 22 26 28 29 27 27
3 1 3 0 4 5 3 10 10 10 13 19 20 26 32 34 30 25 29 26 21 21 23 22 22 23 25 28 32 35 39 34 31 27 26 25 24 24 25 29 21 19 16 20 22 25 25 26 29
5 2 2 1 2 3 6 9 3 16 17 13 26 31 30 32 28 28 29 23 20 21 24 24 24 26 26 29 32 36 40 37 36 26 23 23 23 21 20 22 11 8 15 17 22 24 25 27 29
1 1 4 2 5 4 5 16 12 10 14 25 31 28 30 24 24 24 18 14 17 21 25 27 25 26 28 30 33 37 41 39 41 27 22 22 21 18 13 11 4 8 18 21 23 25 27 25 30
Wind_Direction
44 21 20 12 76 62 334 242 300 356 43 340 290 77 91 92 109 80 346 128 132 190 195 192 191 190 190 192 185 196 213 210 198 187 185 173 159 152 150 155 145 110 78 64 58 85 88 63 50
26 11 35 98 88 107 233 273 202 50 312 238 356 47 54 66 66 78 64 119 130 188 194 198 193 194 195 198 189 204 211 216 209 196 197 193 182 173 172 175 156 142 84 64 60 87 87 58 51
8 36 101 88 110 160 175 218 292 331 7 213 171 69 97 75 51 51 1 153 114 170 185 201 201 198 209 215 213 209 223 228 220 210 207 207 206 206 199 207 183 226 237 257 288 20 59 41 39
313 19 58 74 144 196 207 304 346 340 352 31 33 50 35 3 20 342 1 141 105 151 180 204 209 210 217 223 231 236 240 241 232 221 219 225 236 237 227 216 206 237 245 230 247 249 264 22 23
26 57 67 87 256 260 256 321 357 26 49 7 8 343 304 353 355 1 47 92 83 97 147 201 213 219 229 237 243 250 253 250 238 230 224 227 239 248 252 236 239 242 237 240 259 258 256 266 350
44 60 69 202 249 308 330 358 348 23 29 25 11 333 317 342 1 25 76 107 107 96 81 137 213 223 237 246 254 259 260 254 243 235 239 240 239 239 248 242 243 243 243 248 256 261 260 258 252
91 72 129 169 320 340 13 353 57 21 352 17 356 324 316 10 304 346 353 101 153 147 125 160 221 226 241 248 255 263 264 257 251 243 250 253 247 241 251 246 245 243 241 245 250 261 265 259 254
73 88 86 300 153 264 351 23 77 50 43 355 0 14 338 342 269 265 258 249 250 249 249 246 248 248 247 252 262 270 271 260 257 253 249 249 251 247 253 249 249 248 249 246 242 248 258 263 262
44 60 75 249 159 325 3 16 44 1 358 345 350 340 335 339 303 267 271 281 281 281 281 276 270 263 257 255 259 263 275 278 269 262 253 251 248 248 252 248 250 253 254 256 250 245 248 256 256
68 92 219 217 253 324 337 1 350 6 341 350 355 354 336 351 335 298 288 281 270 266 266 268 269 270 270 275 265 267 270 273 278 277 265 257 257 254 253 256 252 250 253 251 252 245 244 246 248
85 121 194 19 352 357 331 317 356 322 6 351 323 322 317 318 322 295 297 290 281 272 262 257 259 261 265 272 276 275 274 273 273 276 277 269 260 256 255 255 252 250 248 248 249 248 243 241 242
23 39 313 300 331 323 291 287 297 26 354 347 358 337 323 323 318 291 287 280 279 278 279 275 268 261 257 256 259 265 272 275 274 272 272 272 268 260 259 259 257 255 251 251 250 250 245 242 242
47 338 320 309 312 317 297 261 246 42 2 27 20 20 17 0 324 288 269 260 264 266 278 282 284 278 267 259 253 251 252 259 265 267 266 264 264 265 262 260 261 260 256 253 253 250 244 242 244
311 298 305 316 330 5 6 355 152 39 3 16 10 20 22 32 41 5 278 289 286 284 279 287 288 288 286 275 266 257 250 251 259 264 264 259 259 261 259 257 259 263 260 254 251 247 243 245 248
312 337 3 19 355 30 328 160 147 10 355 7 22 38 37 49 47 53 33 352 337 317 307 290 287 283 282 280 283 279 274 266 260 256 257 259 256 256 261 260 260 260 262 255 249 244 236 242 243
42 54 17 357 1 24 25 295 294 340 353 8 17 48 60 59 56 50 33 12 351 341 333 326 313 305 298 291 283 277 276 275 273 268 262 262 259 254 255 258 263 262 260 254 245 241 239 242 239
20 358 350 325 36 5 36 281 295 326 339 30 88 82 77 73 59 44 30 17 9 359 348 341 334 326 318 308 300 292 287 282 277 272 269 266 261 257 255 253 256 258 253 250 240 243 247 244 237
326 335 309 277 319 358 304 284 303 349 28 86 87 80 70 58 48 38 26 13 6 359 352 346 343 338 330 322 311 302 295 283 281 284 278 269 267 267 265 260 254 251 249 246 244 244 243 238 237
249 253 277 282 319 344 289 295 316 49 71 75 70 66 61 52 40 25 13 4 356 349 345 342 338 336 333 329 325 315 313 309 297 287 297 290 274 267 263 265 262 255 242 241 247 247 242 235 232
327 323 333 288 302 326 294 299 108 60 72 92 82 52 45 35 23 19 12 3 354 348 346 343 340 334 327 320 323 324 319 316 313 303 298 300 301 286 268 264 260 257 254 247 241 238 236 237 226
105 92 275 266 308 263 304 273 163 88 99 79 61 60 28 16 12 11 7 359 350 344 338 329 322 321 319 319 310 304 305 307 308 309 302 303 298 299 288 279 271 257 247 245 239 235 233 232 219
288 346 288 302 330 309 19 292 131 37 16 26 22 15 8 11 10 1 352 349 351 347 345 341 340 339 331 326 324 317 307 309 310 309 308 308 307 296 295 299 284 269 246 243 237 235 232 227 221
287 335 284 290 280 309 13 252 297 286 227 291 331 348 6 355 340 338 342 343 345 345 344 344 343 345 341 339 337 330 322 312 306 305 305 311 302 301 296 307 296 285 246 238 239 235 229 225 228
307 329 310 52 94 256 114 1 272 262 314 309 309 313 325 332 332 322 324 330 337 342 344 344 343 345 340 335 330 328 326 320 315 311 305 313 311 300 298 305 300 285 253 234 238 235 232 227 228
23 10 336 322 338 317 182 330 264 319 323 308 325 316 319 317 319 311 314 321 332 340 342 341 341 348 354 350 341 331 319 312 312 314 313 317 319 306 309 305 302 275 255 235 236 228 230 230 226
5 60 261 292 308 300 309 251 239 290 312 318 309 306 310 315 317 315 314 312 320 333 340 338 337 339 346 349 350 347 342 326 317 313 311 314 313 309 305 300 298 267 245 230 225 220 223 223 215
354 55 161 273 273 261 254 304 248 339 338 335 334 331 325 318 318 305 328 310 310 325 337 336 330 327 333 339 346 347 347 339 329 316 317 310 306 303 289 298 294 263 243 217 205 212 207 207 207
108 261 294 153 289 280 281 295 291 319 320 327 325 323 320 321 320 298 324 320 303 315 325 329 327 324 330 335 342 343 346 345 337 323 320 309 310 303 300 301 296 249 226 203 200 206 203 199 189
338 319 51 302 231 279 304 277 324 304 305 318 315 317 316 317 320 319 316 310 301 303 313 319 322 322 323 328 337 339 343 344 346 328 321 316 316 309 311 302 313 224 205 213 209 205 192 196 194
212 136 101 174 271 241 276 282 285 290 311 312 308 314 321 326 327 325 325 325 317 313 310 310 312 317 320 323 329 335 338 340 345 337 327 327 325 317 308 317 288 232 217 215 204 192 193 196 195
Height
1513 1513 1513 1513 1519 1521 1528 1523 1519 1517 1515 1515 1514 1514 1514 1515 1515 1524 1515 1515 1515 1517 1518 1518 1520 1521 1523 1524 1525 1527 1528 1528 1528 1529 1529 1530 1530 1530 1531 1531 1531 1531 1531 1531 1531 1530 1529 1529 1528
1514 1514 1514 1514 1522 1527 1526 1521 1519 1518 1516 1516 1516 1515 1515 1515 1515 1516 1516 1515 1515 1516 1517 1518 1520 1521 1524 1525 1526 1528 1528 1528 1528 1528 1529 1530 1530 1531 1531 1532 1532 1531 1531 1531 1531 1530 1530 1530 1528
1514 1514 1514 1518 1528 1526 1524 1519 1517 1517 1516 1516 1516 1515 1515 1516 1516 1517 1517 1516 1516 1516 1517 1519 1521 1523 1525 1526 1527 1528 1528 1528 1528 1529 1529 1530 1530 1530 1530 1531 1532 1531 1531 1530 1531 1531 1530 1530 1530
1514 1515 1516 1519 1523 1521 1519 1517 1518 1517 1516 1516 1516 1515 1517 1517 1517 1517 1516 1516 1516 1517 1518 1519 1521 1522 1524 1525 1526 1527 1528 1528 1528 1529 1529 1530 1530 1531 1530 1531 1532 1531 1532 1530 1530 1530 1531 1530 1530
1514 1514 1521 1526 1524 1522 1519 1518 1518 1518 1518 1517 1517 1516 1517 1517 1517 1517 1516 1516 1517 1518 1518 1519 1521 1522 1523 1524 1525 1525 1526 1526 1527 1528 1528 1529 1529 1530 1531 1530 1531 1531 1531 1531 1531 1530 1530 1529 1529
1515 1517 1524 1527 1525 1520 1519 1519 1519 1519 1519 1519 1518 1518 1518 1518 1518 1517 1517 1517 1518 1519 1519 1520 1521 1522 1523 1523 1524 1524 1525 1525 1526 1526 1528 1528 1528 1527 1528 1529 1529 1530 1530 1531 1531 1530 1529 1528 1529
1517 1521 1528 1528 1526 1522 1520 1520 1520 1520 1519 1520 1520 1519 1519 1518 1518 1518 1518 1518 1519 1519 1520 1520 1521 1521 1522 1522 1523 1523 1523 1524 1524 1525 1526 1527 1527 1527 1527 1527 1527 1527 1528 1529 1530 1529 1528 1528 1528
1518 1521 1528 1528 1527 1525 1521 1520 1521 1521 1521 1521 1520 1519 1519 1519 1519 1519 1518 1519 1519 1520 1520 1521 1521 1521 1521 1521 1522 1522 1523 1523 1523 1523 1523 1523 1524 1525 1525 1525 1525 1525 1526 1526 1527 1528 1527 1527 1527
1519 1526 1530 1527 1528 1523 1522 1522 1522 1522 1522 1521 1521 1520 1520 1519 1517 1518 1518 1519 1519 1520 1520 1520 1520 1520 1520 1520 1520 1520 1520 1520 1521 1521 1521 1521 1521 1521 1522 1522 1523 1524 1524 1524 1524 1525 1525 1525 1526
1521 1529 1527 1525 1524 1524 1523 1523 1523 1523 1522 1521 1521 1520 1519 1519 1518 1517 1517 1517 1518 1518 1518 1517 1517 1518 1518 1518 1518 1518 1517 1518 1518 1518 1518 1518 1518 1518 1518 1518 1519 1520 1521 1521 1521 1522 1522 1522 1523
1523 1526 1525 1524 1524 1524 1523 1522 1523 1523 1523 1524 1522 1519 1518 1517 1516 1516 1516 1515 1514 1514 1513 1513 1513 1513 1515 1516 1517 1516 1515 1515 1514 1515 1515 1515 1514 1514 1514 1514 1515 1516 1517 1517 1518 1519 1520 1520 1519
1525 1524 1525 1524 1524 1524 1523 1522 1522 1523 1526 1523 1521 1519 1516 1515 1514 1513 1513 1512 1511 1510 1509 1509 1508 1508 1509 1510 1512 1512 1511 1510 1510 1510 1510 1510 1510 1510 1510 1510 1510 1511 1512 1512 1513 1515 1516 1517 1516
1525 1525 1524 1524 1522 1522 1521 1521 1522 1523 1523 1521 1519 1517 1515 1514 1512 1511 1510 1509 1508 1507 1506 1505 1505 1504 1503 1503 1504 1505 1506 1506 1505 1504 1505 1506 1505 1505 1505 1505 1506 1506 1507 1508 1508 1511 1512 1513 1513
1526 1524 1523 1522 1521 1521 1521 1521 1521 1523 1521 1519 1516 1515 1514 1513 1513 1511 1510 1508 1507 1506 1505 1503 1502 1501 1500 1499 1498 1499 1499 1499 1499 1499 1499 1501 1501 1500 1500 1501 1501 1501 1502 1503 1504 1506 1508 1509 1509
1524 1524 1523 1522 1522 1522 1521 1522 1520 1522 1521 1519 1517 1516 1515 1514 1513 1511 1510 1508 1507 1506 1504 1503 1501 1499 1497 1496 1494 1493 1493 1493 1492 1493 1493 1493 1494 1494 1495 1497 1496 1497 1498 1499 1499 1500 1502 1504 1505
1527 1529 1531 1525 1524 1525 1523 1528 1520 1521 1519 1518 1518 1518 1517 1515 1513 1512 1511 1510 1508 1507 1505 1503 1501 1499 1498 1495 1492 1490 1488 1487 1487 1486 1485 1486 1486 1487 1488 1490 1490 1492 1493 1494 1494 1495 1497 1499 1500
1535 1538 1539 1532 1528 1529 1530 1528 1522 1521 1520 1519 1520 1520 1519 1518 1517 1515 1514 1512 1510 1507 1505 1503 1500 1498 1496 1495 1492 1489 1487 1484 1482 1480 1479 1479 1478 1479 1480 1481 1483 1485 1487 1488 1489 1489 1491 1493 1495
1546 1545 1542 1540 1530 1531 1529 1526 1524 1523 1520 1521 1521 1521 1520 1520 1519 1518 1516 1513 1511 1509 1506 1503 1500 1497 1494 1491 1489 1487 1485 1482 1479 1476 1474 1472 1471 1471 1472 1472 1474 1476 1479 1481 1482 1483 1486 1487 1490
1544 1545 1543 1541 1536 1534 1529 1525 1523 1527 1526 1525 1524 1523 1522 1521 1519 1519 1518 1515 1512 1509 1506 1502 1498 1495 1491 1488 1485 1482 1479 1478 1477 1473 1470 1468 1466 1464 1464 1464 1466 1467 1470 1473 1475 1478 1479 1480 1483
1543 1545 1546 1539 1535 1533 1523 1520 1526 1527 1529 1527 1526 1526 1523 1522 1521 1519 1517 1514 1511 1507 1505 1501 1497 1493 1490 1486 1483 1480 1476 1473 1471 1470 1467 1464 1462 1458 1456 1457 1458 1460 1461 1465 1468 1470 1471 1473 1475
1545 1547 1546 1544 1535 1530 1525 1515 1523 1528 1528 1528 1525 1523 1523 1522 1520 1517 1515 1513 1510 1507 1503 1499 1494 1490 1486 1482 1478 1474 1471 1469 1466 1463 1462 1461 1457 1454 1450 1450 1451 1452 1453 1455 1458 1461 1463 1465 1469
1547 1545 1544 1541 1539 1529 1529 1524 1522 1528 1528 1525 1523 1523 1523 1522 1521 1518 1515 1512 1508 1504 1500 1496 1492 1487 1483 1479 1473 1470 1466 1463 1461 1458 1454 1452 1450 1448 1446 1444 1444 1444 1445 1447 1450 1453 1456 1458 1461
1545 1544 1542 1535 1537 1538 1536 1533 1519 1528 1525 1525 1523 1523 1521 1520 1518 1516 1513 1510 1508 1503 1497 1493 1489 1485 1482 1477 1472 1466 1463 1459 1455 1452 1448 1444 1443 1441 1439 1439 1437 1436 1437 1439 1442 1445 1449 1453 1457
1548 1545 1539 1543 1543 1538 1545 1545 1526 1523 1525 1526 1526 1524 1523 1520 1518 1515 1512 1509 1505 1501 1496 1491 1486 1482 1478 1474 1470 1465 1460 1455 1450 1445 1442 1438 1435 1433 1433 1432 1429 1428 1429 1431 1434 1438 1442 1448 1452
1551 1551 1546 1534 1528 1529 1544 1540 1518 1528 1528 1528 1526 1524 1522 1519 1517 1513 1509 1505 1502 1498 1494 1488 1484 1480 1476 1472 1467 1461 1456 1452 1447 1442 1437 1433 1429 1427 1425 1425 1423 1422 1421 1423 1427 1431 1435 1441 1445
1559 1559 1563 1561 1544 1540 1543 1533 1521 1528 1529 1528 1526 1523 1520 1517 1513 1509 1505 1502 1499 1495 1491 1486 1482 1478 1474 1469 1464 1459 1453 1446 1441 1437 1433 1427 1421 1415 1418 1419 1416 1414 1413 1415 1420 1426 1430 1435 1440
1560 1560 1563 1562 1557 1558 1541 1535 1525 1526 1527 1526 1523 1520 1518 1512 1507 1504 1501 1498 1495 1491 1488 1484 1479 1476 1471 1466 1461 1456 1449 1441 1437 1433 1429 1425 1421 1419 1418 1415 1408 1406 1405 1407 1414 1420 1424 1429 1434
1560 1563 1564 1567 1572 1563 1546 1539 1527 1528 1527 1525 1524 1518 1513 1507 1502 1499 1496 1493 1490 1488 1485 1481 1477 1472 1468 1463 1457 1453 1446 1439 1431 1427 1423 1419 1416 1413 1410 1406 1400 1399 1402 1404 1410 1414 1419 1425 1432
1563 1564 1569 1570 1570 1565 1558 1536 1535 1531 1527 1527 1522 1516 1510 1503 1499 1495 1492 1489 1487 1485 1481 1477 1474 1469 1464 1460 1454 1449 1442 1435 1430 1425 1420 1415 1410 1407 1403 1400 1397 1397 1401 1404 1407 1411 1417 1423 1429
1564 1565 1566 1574 1570 1564 1566 1539 1532 1530 1528 1525 1520 1514 1506 1500 1495 1490 1487 1486 1484 1481 1477 1474 1470 1465 1460 1456 1451 1445 1438 1432 1425 1419 1415 1410 1406 1403 1399 1396 1394 1396 1398 1400 1404 1409 1415 1420 1426